SCP
1 1 0 0 0 0 0 -0 0 0 0 0 0 0 0 0 0 0 0 0 0 0 0 0 0 0 1 0 0 0 0 0 0 0 0 0 0 0 0 0 0 0 0
1 0 0 1 0 0 0 -0 0 0 0 -0 0 0 0 0 0 0 0 0 0 0 0 0 0 1 1 1 1 1 0 0 0 0 0 0 0 0 0 0 0 0 0
0 0 0 0 0 0 0 0 0 0 1 0 0 0 0 0 0 0 0 1 1 0 0 1 1 1 0 1 1 1 1 1 1 0 0 0 0 0 0 0 0 0 0
0 0 0 0 0 1 0 -0 0 0 0 0 0 0 0 0 0 0 0 0 1 1 1 1 1 1 1 1 1 1 1 1 1 1 0 0 0 0 1 0 0 0 0
0 0 0 0 1 0 0 0 -0 0 0 0 0 1 1 1 1 1 1 1 1 1 1 1 0 0 0 1 2 1 1 1 1 1 1 0 0 0 0 0 0 0 1
0 0 0 0 0 0 0 0 0 0 0 1 0 1 1 1 0 0 0 0 0 0 1 1 1 0 0 0 0 0 1 2 1 1 1 1 1 1 0 0 1 1 0
0 0 0 0 0 0 0 0 1 0 0 0 1 0 0 0 0 0 0 0 0 0 0 0 1 1 0 1 0 0 0 0 0 1 1 1 1 1 1 1 1 0 0
0 0 0 0 0 0 0 0 0 1 1 1 1 1 0 1 0 0 0 0 0 0 0 0 0 1 1 1 1 1 1 1 0 0 1 1 1 1 1 1 1 1 0
0 0 0 0 0 0 0 0 0 0 0 1 0 1 1 0 0 0 0 0 0 0 0 0 0 0 1 0 1 1 1 1 0 0 0 0 1 1 1 1 1 1 0
0 0 0 0 0 0 0 0 0 0 0 0 0 0 1 1 0 0 0 0 0 0 0 0 0 0 1 0 1 1 1 0 1 1 0 0 0 0 0 0 1 1 1
0 0 0 0 0 0 0 0 0 0 0 0 0 0 0 0 0 0 0 0 0 -0 -0 0 0 0 0 0 0 1 1 1 1 1 1 1 1 0 0 0 1 1 0
0 0 0 0 0 0 0 0 0 0 0 0 0 0 0 0 0 0 0 0 0 0 -0 -0 0 0 0 0 0 0 0 0 1 1 1 1 1 1 1 1 1 1 1
0 0 0 0 0 0 0 0 0 0 0 0 0 0 0 0 0 0 0 0 0 0 -0 -0 -0 -0 0 0 0 0 0 0 0 1 1 1 1 1 2 1 1 1 0
0 0 0 0 0 0 0 0 0 0 0 0 0 0 0 0 0 0 0 0 0 0 -0 -0 0 -0 0 0 0 0 0 0 0 1 1 1 1 1 1 1 1 0 0
0 0 0 0 0 0 0 0 0 0 0 0 0 0 0 0 0 0 0 0 0 0 0 0 0 -0 -0 -0 0 0 0 0 0 0 1 1 2 1 1 1 1 0 0
0 0 0 0 0 0 0 0 0 0 0 0 0 0 0 0 0 0 0 0 0 0 0 0 0 0 0 0 0 0 0 0 0 0 0 1 1 1 1 1 1 1 0
0 0 0 0 0 0 0 0 0 0 0 0 0 0 0 0 0 0 0 0 0 0 0 0 0 0 0 0 0 0 0 0 0 0 0 0 1 1 0 0 1 1 0
0 0 0 0 0 0 0 0 0 0 0 0 0 0 0 0 0 0 0 0 0 0 0 0 0 0 0 0 0 0 0 0 0 0 0 0 0 0 0 0 1 1 0
0 0 0 0 0 0 0 0 0 0 0 0 0 0 0 0 0 0 0 0 0 0 0 0 0 0 0 0 0 0 0 0 0 0 0 0 0 0 0 0 0 0 0
0 0 0 0 0 0 0 0 0 0 0 0 0 0 0 0 0 0 0 0 0 0 0 0 0 0 0 0 0 0 0 0 0 0 0 0 0 0 0 0 1 1 0
0 0 0 0 0 0 0 0 0 0 0 0 0 0 0 0 0 0 0 0 0 0 0 0 0 0 0 0 0 0 0 0 0 0 0 0 0 0 0 1 1 1 0
0 0 0 0 0 0 0 0 0 0 0 0 0 0 0 0 0 0 0 0 0 0 0 0 0 0 0 0 0 0 0 0 0 0 0 0 0 0 0 0 0 0 0
0 0 0 0 0 0 0 0 0 0 0 0 0 0 0 0 0 0 0 0 0 0 0 0 0 0 0 0 0 0 0 0 0 0 0 0 0 0 0 0 0 0 0
0 0 0 0 0 0 0 0 0 0 0 0 0 0 0 0 0 0 0 0 0 0 0 0 0 0 0 0 0 0 0 0 0 0 0 0 0 0 0 0 0 0 0
0 0 0 0 0 0 0 0 0 0 0 0 0 0 0 0 0 0 0 0 0 0 0 0 0 0 0 0 0 0 0 0 0 0 0 0 0 0 0 0 0 0 0
0 0 0 0 0 0 0 0 0 0 0 0 0 0 0 0 0 0 0 0 0 0 0 0 0 0 0 0 0 0 0 0 0 0 0 0 0 0 0 0 0 0 0
Wind_Speed_500mb
13 15 14 12 25 35 27 32 35 37 43 48 56 56 55 56 57 59 60 57 56 56 52 51 47 43 39 33 37 37 34 33 28 28 32 30 25 22 22 20 21 21 22
12 5 3 14 21 25 27 27 36 39 37 58 54 58 64 61 61 61 63 64 64 61 58 55 58 51 49 45 42 42 41 39 33 32 29 26 30 28 28 28 29 28 30
11 21 20 14 12 14 17 24 32 36 40 50 62 57 59 68 66 65 62 64 62 64 64 61 60 59 62 51 50 50 46 45 44 39 31 28 32 35 36 38 38 41 41
19 20 18 18 21 27 31 31 33 34 33 37 41 51 55 54 67 72 67 62 60 65 67 66 64 63 64 63 60 55 51 53 49 49 39 36 34 32 41 39 35 34 33
20 23 27 33 34 33 34 37 34 32 29 31 34 38 52 58 54 44 60 61 57 56 55 62 68 65 61 63 61 56 58 56 51 48 46 40 39 33 31 31 34 33 37
44 46 47 45 38 34 34 38 41 32 29 28 32 33 34 41 30 40 38 56 61 55 48 52 59 67 67 61 65 62 64 64 64 51 49 48 45 43 34 33 30 28 29
49 53 52 52 55 50 43 38 40 42 33 32 33 34 36 47 59 53 82 73 65 58 63 59 54 59 65 63 62 66 66 65 67 69 65 56 47 51 43 40 40 37 34
53 61 64 60 57 55 54 50 44 42 43 38 36 38 36 39 49 52 64 63 72 86 82 75 64 65 67 67 62 64 70 70 69 71 73 68 64 55 52 45 43 41 44
62 66 63 58 51 47 50 51 53 51 47 43 41 42 44 43 43 61 70 72 73 81 76 68 58 66 71 68 64 62 68 71 69 69 69 66 60 57 54 52 49 45 37
62 65 61 57 60 60 60 64 58 55 60 54 50 50 49 53 51 53 59 78 77 76 72 64 64 61 66 70 70 68 69 65 58 66 65 65 62 60 57 56 50 50 38
65 62 62 64 64 66 69 66 61 59 58 62 61 61 59 58 59 54 53 61 79 80 76 77 73 50 57 61 72 75 70 63 59 62 60 62 62 61 59 58 53 48 37
69 71 69 65 67 68 68 65 62 58 58 59 59 62 63 65 63 57 53 54 71 70 75 75 75 79 67 55 70 73 68 71 68 62 56 59 54 54 58 56 53 48 48
67 71 70 68 68 68 69 69 62 55 51 49 48 51 56 54 66 60 55 54 55 76 78 79 72 69 46 57 66 67 54 60 78 75 73 61 57 54 57 57 54 53 50
48 50 60 66 68 71 74 57 52 49 50 49 48 51 56 59 55 64 60 57 62 73 81 84 62 63 63 59 64 62 66 62 70 80 82 67 57 57 64 59 56 55 49
44 43 44 46 51 55 56 53 50 52 51 49 49 48 51 58 60 61 64 61 63 66 74 89 78 75 82 80 75 72 66 73 78 79 79 78 68 72 72 67 60 56 51
41 39 37 43 47 59 58 57 56 64 59 53 55 58 56 64 67 63 63 55 53 49 50 56 64 64 72 72 64 61 60 61 68 83 87 84 76 81 80 75 64 57 52
47 54 53 52 56 61 63 65 63 62 61 52 51 58 62 66 67 67 67 59 55 51 49 56 65 62 58 58 53 47 51 55 50 61 78 79 79 83 82 81 70 62 47
60 64 66 67 64 64 64 64 67 66 61 55 46 51 57 61 65 67 62 61 60 55 55 56 68 65 65 63 47 45 42 44 50 53 59 66 74 78 86 84 77 69 50
62 60 58 66 64 57 62 60 62 63 61 58 55 49 52 54 57 61 66 73 70 67 56 60 64 72 74 68 54 50 47 44 44 56 59 63 72 80 85 85 81 68 59
62 64 68 67 61 59 56 54 59 60 58 56 55 56 43 48 54 60 62 67 70 67 60 61 62 68 70 73 75 69 67 63 66 62 61 63 68 81 83 82 75 68 65
63 64 63 62 62 58 57 58 54 54 58 60 57 43 46 47 42 43 48 62 66 62 59 63 65 64 61 64 71 79 70 77 76 69 54 54 67 77 80 66 66 58 61
55 57 59 61 56 53 54 55 52 56 55 54 53 44 45 44 44 44 44 45 54 57 58 62 63 67 69 72 71 66 59 59 62 66 62 61 66 72 73 71 70 66 56
53 55 53 52 47 49 49 46 44 46 43 43 43 36 33 39 45 48 43 45 47 47 54 57 56 53 52 55 53 53 58 61 60 65 64 66 69 69 71 70 65 66 61
56 50 48 45 40 36 28 34 36 34 32 32 31 33 33 35 37 41 48 45 48 50 56 55 51 43 40 42 49 53 57 62 66 67 66 67 71 67 72 64 64 64 59
50 50 45 43 39 34 28 26 31 25 28 28 28 30 32 34 35 38 43 45 45 46 41 41 48 45 38 37 43 50 51 50 56 52 59 71 67 65 69 53 54 52 52
51 46 44 40 35 30 27 24 27 26 26 31 30 31 30 27 30 38 40 41 35 33 32 34 31 35 29 29 32 27 22 32 46 44 40 41 48 50 49 50 51 47 44
Wind_Direction_500mb
212 231 255 263 268 286 291 285 271 274 276 274 269 261 255 256 254 253 251 254 257 256 256 260 257 253 249 250 254 252 253 256 257 262 271 275 277 272 266 265 264 266 270
157 75 8 335 313 308 300 298 293 279 282 270 270 263 259 255 254 254 252 251 253 255 256 255 258 257 253 252 254 251 251 254 253 260 262 269 266 255 255 261 267 270 273
303 317 330 351 348 331 323 314 307 305 282 283 260 259 258 256 257 255 255 256 256 259 258 257 257 256 257 254 255 254 253 253 255 255 259 267 267 265 262 265 268 273 281
1 351 341 336 331 332 332 330 328 325 317 308 283 262 258 258 252 254 256 257 259 260 260 258 258 257 257 257 256 253 251 251 252 255 257 263 268 262 266 270 272 276 276
328 320 313 312 314 318 322 323 319 317 320 309 301 280 261 257 256 255 251 256 254 257 262 265 260 257 259 257 254 252 250 251 248 249 252 256 257 258 265 269 275 277 276
309 306 306 305 304 302 303 306 309 301 303 305 303 300 266 240 251 266 275 257 248 248 254 259 261 259 258 258 251 249 255 251 248 245 249 249 247 258 267 265 268 273 278
288 288 291 294 297 300 300 297 299 300 295 298 299 301 286 253 246 237 241 259 246 245 251 256 257 256 255 255 254 251 250 251 251 252 253 248 253 262 268 268 267 271 269
298 296 294 292 292 292 292 295 293 286 286 286 288 293 289 274 251 246 238 236 261 263 258 256 258 256 252 253 253 255 249 250 248 245 250 250 256 261 265 264 258 265 270
297 297 294 294 291 289 293 296 297 285 279 275 273 281 285 283 267 248 244 249 260 251 240 240 253 251 250 249 248 252 253 251 250 247 252 251 249 252 256 259 254 254 256
292 295 292 286 284 283 291 297 293 284 278 272 264 263 271 275 273 267 262 253 243 250 244 248 244 249 243 246 240 242 249 248 246 248 243 241 245 251 250 246 253 250 247
289 286 284 283 281 278 288 291 289 285 279 277 267 260 260 267 269 271 259 245 234 245 252 246 241 253 253 238 244 241 243 248 247 245 244 243 246 244 239 238 238 244 243
286 280 279 277 278 282 289 291 288 282 275 272 271 263 256 258 264 265 259 250 235 242 253 260 257 243 245 262 246 241 246 249 246 247 238 235 233 236 235 232 237 246 249
294 282 277 274 276 282 289 289 284 279 271 267 262 259 258 255 259 263 262 261 246 242 253 264 266 267 250 253 256 245 256 248 245 246 246 236 235 235 240 236 238 244 248
294 294 282 280 283 284 285 281 278 273 267 262 260 258 258 255 251 254 259 262 262 257 253 255 252 249 260 254 255 248 241 247 244 245 244 240 239 235 236 233 237 242 242
301 295 291 289 287 286 284 280 274 271 267 265 258 256 256 258 254 251 255 265 264 262 253 258 257 253 256 261 255 252 249 253 249 245 245 246 236 238 236 235 236 240 232
296 296 296 297 296 294 288 286 284 286 280 272 258 251 253 258 256 255 250 255 259 256 257 256 260 248 247 248 251 254 253 253 256 250 246 244 240 242 237 233 236 233 226
299 296 301 303 299 297 298 295 288 290 287 278 259 253 250 257 257 252 254 258 259 251 244 243 246 252 248 242 243 245 257 263 268 256 249 245 240 242 239 235 233 229 218
292 301 299 300 298 292 291 292 291 290 287 277 272 259 254 252 250 252 252 252 253 249 249 250 253 251 250 245 243 247 254 264 257 257 254 242 235 235 238 235 233 227 213
299 299 297 297 295 289 288 284 285 283 281 277 273 267 259 252 248 246 248 247 250 251 253 251 255 255 251 247 239 238 245 253 258 259 252 249 235 236 240 236 235 223 213
299 298 300 301 296 293 288 287 285 285 279 274 270 266 259 258 247 247 249 246 248 251 254 259 256 252 252 248 245 247 252 259 259 261 259 240 239 234 235 233 228 222 214
302 297 299 300 297 293 289 287 283 278 279 269 263 259 253 254 254 249 251 249 248 244 247 257 258 256 252 248 245 248 251 253 259 256 244 241 232 231 229 220 219 212 210
305 301 304 301 298 293 291 287 284 279 281 269 264 261 252 250 248 249 248 247 246 245 251 261 259 258 257 255 253 250 245 240 238 242 236 238 229 224 221 217 214 207 195
309 304 302 300 302 309 303 294 284 281 270 268 267 257 253 250 252 251 251 247 243 246 256 261 257 253 253 250 239 236 236 235 232 236 230 229 225 217 218 213 215 199 189
313 308 301 299 300 312 315 304 291 284 273 255 254 260 258 256 258 255 254 250 246 251 255 250 244 247 252 248 245 242 242 241 233 232 230 227 220 216 206 207 200 192 187
318 313 306 303 302 301 298 310 308 295 274 267 267 267 267 268 262 250 251 252 253 245 247 251 245 241 241 242 245 237 237 231 225 225 223 229 219 209 196 189 189 188 185
331 319 312 305 302 296 289 296 301 299 290 273 271 278 275 264 255 255 258 260 239 241 253 250 255 223 230 235 232 238 234 220 212 195 194 175 160 165 176 176 179 177 176
Wind_Speed_850mb
13 15 14 12 25 35 27 32 35 37 43 48 56 56 55 56 57 59 60 57 56 56 52 51 47 43 39 33 37 37 34 33 28 28 32 30 25 22 22 20 21 21 22
12 5 3 14 21 25 27 27 36 39 37 58 54 58 64 61 61 61 63 64 64 61 58 55 58 51 49 45 42 42 41 39 33 32 29 26 30 28 28 28 29 28 30
11 21 20 14 12 14 17 24 32 36 40 50 62 57 59 68 66 65 62 64 62 64 64 61 60 59 62 51 50 50 46 45 44 39 31 28 32 35 36 38 38 41 41
19 20 18 18 21 27 31 31 33 34 33 37 41 51 55 54 67 72 67 62 60 65 67 66 64 63 64 63 60 55 51 53 49 49 39 36 34 32 41 39 35 34 33
20 23 27 33 34 33 34 37 34 32 29 31 34 38 52 58 54 44 60 61 57 56 55 62 68 65 61 63 61 56 58 56 51 48 46 40 39 33 31 31 34 33 37
44 46 47 45 38 34 34 38 41 32 29 28 32 33 34 41 30 40 38 56 61 55 48 52 59 67 67 61 65 62 64 64 64 51 49 48 45 43 34 33 30 28 29
49 53 52 52 55 50 43 38 40 42 33 32 33 34 36 47 59 53 82 73 65 58 63 59 54 59 65 63 62 66 66 65 67 69 65 56 47 51 43 40 40 37 34
53 61 64 60 57 55 54 50 44 42 43 38 36 38 36 39 49 52 64 63 72 86 82 75 64 65 67 67 62 64 70 70 69 71 73 68 64 55 52 45 43 41 44
62 66 63 58 51 47 50 51 53 51 47 43 41 42 44 43 43 61 70 72 73 81 76 68 58 66 71 68 64 62 68 71 69 69 69 66 60 57 54 52 49 45 37
62 65 61 57 60 60 60 64 58 55 60 54 50 50 49 53 51 53 59 78 77 76 72 64 64 61 66 70 70 68 69 65 58 66 65 65 62 60 57 56 50 50 38
65 62 62 64 64 66 69 66 61 59 58 62 61 61 59 58 59 54 53 61 79 80 76 77 73 50 57 61 72 75 70 63 59 62 60 62 62 61 59 58 53 48 37
69 71 69 65 67 68 68 65 62 58 58 59 59 62 63 65 63 57 53 54 71 70 75 75 75 79 67 55 70 73 68 71 68 62 56 59 54 54 58 56 53 48 48
67 71 70 68 68 68 69 69 62 55 51 49 48 51 56 54 66 60 55 54 55 76 78 79 72 69 46 57 66 67 54 60 78 75 73 61 57 54 57 57 54 53 50
48 50 60 66 68 71 74 57 52 49 50 49 48 51 56 59 55 64 60 57 62 73 81 84 62 63 63 59 64 62 66 62 70 80 82 67 57 57 64 59 56 55 49
44 43 44 46 51 55 56 53 50 52 51 49 49 48 51 58 60 61 64 61 63 66 74 89 78 75 82 80 75 72 66 73 78 79 79 78 68 72 72 67 60 56 51
41 39 37 43 47 59 58 57 56 64 59 53 55 58 56 64 67 63 63 55 53 49 50 56 64 64 72 72 64 61 60 61 68 83 87 84 76 81 80 75 64 57 52
47 54 53 52 56 61 63 65 63 62 61 52 51 58 62 66 67 67 67 59 55 51 49 56 65 62 58 58 53 47 51 55 50 61 78 79 79 83 82 81 70 62 47
60 64 66 67 64 64 64 64 67 66 61 55 46 51 57 61 65 67 62 61 60 55 55 56 68 65 65 63 47 45 42 44 50 53 59 66 74 78 86 84 77 69 50
62 60 58 66 64 57 62 60 62 63 61 58 55 49 52 54 57 61 66 73 70 67 56 60 64 72 74 68 54 50 47 44 44 56 59 63 72 80 85 85 81 68 59
62 64 68 67 61 59 56 54 59 60 58 56 55 56 43 48 54 60 62 67 70 67 60 61 62 68 70 73 75 69 67 63 66 62 61 63 68 81 83 82 75 68 65
63 64 63 62 62 58 57 58 54 54 58 60 57 43 46 47 42 43 48 62 66 62 59 63 65 64 61 64 71 79 70 77 76 69 54 54 67 77 80 66 66 58 61
55 57 59 61 56 53 54 55 52 56 55 54 53 44 45 44 44 44 44 45 54 57 58 62 63 67 69 72 71 66 59 59 62 66 62 61 66 72 73 71 70 66 56
53 55 53 52 47 49 49 46 44 46 43 43 43 36 33 39 45 48 43 45 47 47 54 57 56 53 52 55 53 53 58 61 60 65 64 66 69 69 71 70 65 66 61
56 50 48 45 40 36 28 34 36 34 32 32 31 33 33 35 37 41 48 45 48 50 56 55 51 43 40 42 49 53 57 62 66 67 66 67 71 67 72 64 64 64 59
50 50 45 43 39 34 28 26 31 25 28 28 28 30 32 34 35 38 43 45 45 46 41 41 48 45 38 37 43 50 51 50 56 52 59 71 67 65 69 53 54 52 52
51 46 44 40 35 30 27 24 27 26 26 31 30 31 30 27 30 38 40 41 35 33 32 34 31 35 29 29 32 27 22 32 46 44 40 41 48 50 49 50 51 47 44
Wind_Direction_850mb
212 231 255 263 268 286 291 285 271 274 276 274 269 261 255 256 254 253 251 254 257 256 256 260 257 253 249 250 254 252 253 256 257 262 271 275 277 272 266 265 264 266 270
157 75 8 335 313 308 300 298 293 279 282 270 270 263 259 255 254 254 252 251 253 255 256 255 258 257 253 252 254 251 251 254 253 260 262 269 266 255 255 261 267 270 273
303 317 330 351 348 331 323 314 307 305 282 283 260 259 258 256 257 255 255 256 256 259 258 257 257 256 257 254 255 254 253 253 255 255 259 267 267 265 262 265 268 273 281
1 351 341 336 331 332 332 330 328 325 317 308 283 262 258 258 252 254 256 257 259 260 260 258 258 257 257 257 256 253 251 251 252 255 257 263 268 262 266 270 272 276 276
328 320 313 312 314 318 322 323 319 317 320 309 301 280 261 257 256 255 251 256 254 257 262 265 260 257 259 257 254 252 250 251 248 249 252 256 257 258 265 269 275 277 276
309 306 306 305 304 302 303 306 309 301 303 305 303 300 266 240 251 266 275 257 248 248 254 259 261 259 258 258 251 249 255 251 248 245 249 249 247 258 267 265 268 273 278
288 288 291 294 297 300 300 297 299 300 295 298 299 301 286 253 246 237 241 259 246 245 251 256 257 256 255 255 254 251 250 251 251 252 253 248 253 262 268 268 267 271 269
298 296 294 292 292 292 292 295 293 286 286 286 288 293 289 274 251 246 238 236 261 263 258 256 258 256 252 253 253 255 249 250 248 245 250 250 256 261 265 264 258 265 270
297 297 294 294 291 289 293 296 297 285 279 275 273 281 285 283 267 248 244 249 260 251 240 240 253 251 250 249 248 252 253 251 250 247 252 251 249 252 256 259 254 254 256
292 295 292 286 284 283 291 297 293 284 278 272 264 263 271 275 273 267 262 253 243 250 244 248 244 249 243 246 240 242 249 248 246 248 243 241 245 251 250 246 253 250 247
289 286 284 283 281 278 288 291 289 285 279 277 267 260 260 267 269 271 259 245 234 245 252 246 241 253 253 238 244 241 243 248 247 245 244 243 246 244 239 238 238 244 243
286 280 279 277 278 282 289 291 288 282 275 272 271 263 256 258 264 265 259 250 235 242 253 260 257 243 245 262 246 241 246 249 246 247 238 235 233 236 235 232 237 246 249
294 282 277 274 276 282 289 289 284 279 271 267 262 259 258 255 259 263 262 261 246 242 253 264 266 267 250 253 256 245 256 248 245 246 246 236 235 235 240 236 238 244 248
294 294 282 280 283 284 285 281 278 273 267 262 260 258 258 255 251 254 259 262 262 257 253 255 252 249 260 254 255 248 241 247 244 245 244 240 239 235 236 233 237 242 242
301 295 291 289 287 286 284 280 274 271 267 265 258 256 256 258 254 251 255 265 264 262 253 258 257 253 256 261 255 252 249 253 249 245 245 246 236 238 236 235 236 240 232
296 296 296 297 296 294 288 286 284 286 280 272 258 251 253 258 256 255 250 255 259 256 257 256 260 248 247 248 251 254 253 253 256 250 246 244 240 242 237 233 236 233 226
299 296 301 303 299 297 298 295 288 290 287 278 259 253 250 257 257 252 254 258 259 251 244 243 246 252 248 242 243 245 257 263 268 256 249 245 240 242 239 235 233 229 218
292 301 299 300 298 292 291 292 291 290 287 277 272 259 254 252 250 252 252 252 253 249 249 250 253 251 250 245 243 247 254 264 257 257 254 242 235 235 238 235 233 227 213
299 299 297 297 295 289 288 284 285 283 281 277 273 267 259 252 248 246 248 247 250 251 253 251 255 255 251 247 239 238 245 253 258 259 252 249 235 236 240 236 235 223 213
299 298 300 301 296 293 288 287 285 285 279 274 270 266 259 258 247 247 249 246 248 251 254 259 256 252 252 248 245 247 252 259 259 261 259 240 239 234 235 233 228 222 214
302 297 299 300 297 293 289 287 283 278 279 269 263 259 253 254 254 249 251 249 248 244 247 257 258 256 252 248 245 248 251 253 259 256 244 241 232 231 229 220 219 212 210
305 301 304 301 298 293 291 287 284 279 281 269 264 261 252 250 248 249 248 247 246 245 251 261 259 258 257 255 253 250 245 240 238 242 236 238 229 224 221 217 214 207 195
309 304 302 300 302 309 303 294 284 281 270 268 267 257 253 250 252 251 251 247 243 246 256 261 257 253 253 250 239 236 236 235 232 236 230 229 225 217 218 213 215 199 189
313 308 301 299 300 312 315 304 291 284 273 255 254 260 258 256 258 255 254 250 246 251 255 250 244 247 252 248 245 242 242 241 233 232 230 227 220 216 206 207 200 192 187
318 313 306 303 302 301 298 310 308 295 274 267 267 267 267 268 262 250 251 252 253 245 247 251 245 241 241 242 245 237 237 231 225 225 223 229 219 209 196 189 189 188 185
331 319 312 305 302 296 289 296 301 299 290 273 271 278 275 264 255 255 258 260 239 241 253 250 255 223 230 235 232 238 234 220 212 195 194 175 160 165 176 176 179 177 176